CW9790 Weather Reports


Display with metric or nautical units.
time (UTC)temp
F
wind
direction
speed
MPH
gust
MPH
rain 1hr
in
rain 24hr
in
rain mn
in
humidity
%
barometer
mb
20260506185018 68 315 4.0 11.0 0.00 0.09 0.09 84 1009.7
20260506184017 69 0 5.0 11.0 0.00 0.09 0.09 83 1009.7
20260506183018 70 0 4.0 11.0 0.00 0.09 0.09 82 1010.0
20260506182038 71 0 4.0 10.0 0.00 0.09 0.09 82 1010.1
20260506181019 72 23 3.0 6.0 0.00 0.09 0.09 81 1010.2
20260506180018 73 23 4.0 9.0 0.00 0.09 0.09 82 1010.0
20260506175017 73 0 4.0 10.0 0.00 0.09 0.09 86 1010.1
20260506174018 72 0 3.0 10.0 0.00 0.09 0.09 90 1010.1
20260506173037 71 338 4.0 9.0 0.00 0.09 0.09 93 1010.1
20260506172017 69 0 3.0 8.0 0.00 0.09 0.09 94 1009.8
20260506171017 68 0 3.0 7.0 0.00 0.09 0.09 94 1009.5
20260506170017 67 0 3.0 7.0 0.00 0.09 0.09 94 1009.2
20260506165017 67 23 3.0 5.0 0.00 0.09 0.09 94 1009.4
20260506164118 67 45 2.0 5.0 0.00 0.09 0.09 94 1009.2
20260506163017 66 45 2.0 5.0 0.00 0.09 0.09 94 1008.9
20260506162017 66 45 3.0 5.0 0.00 0.09 0.09 94 1008.7
20260506161017 66 45 3.0 9.0 0.00 0.09 0.09 94 1008.7
20260506160017 66 23 4.0 11.0 0.00 0.09 0.09 94 1008.7
20260506155058 65 23 4.0 10.0 0.05 0.09 0.09 94 1008.7
20260506154017 65 0 5.0 11.0 0.05 0.09 0.09 94 1008.6
20260506153017 65 0 5.0 13.0 0.05 0.09 0.09 93 1008.5
20260506152017 66 0 5.0 13.0 0.05 0.09 0.09 93 1008.9
20260506151038 67 23 3.0 9.0 0.05 0.09 0.09 94 1008.9
20260506150017 67 315 5.0 13.0 0.06 0.09 0.09 93 1009.0
20260506145017 72 203 3.0 13.0 0.01 0.04 0.04 94 1009.5
20260506144017 72 158 1.0 4.0 0.02 0.04 0.04 94 1008.9
20260506143016 72 0.0 2.0 0.02 0.04 0.04 95 1008.8
20260506142017 72 0.0 1.0 0.03 0.04 0.04 94 1008.7
20260506141017 72 0.0 2.0 0.03 0.04 0.04 94 1008.7
20260506140017 72 0.0 0.0 0.02 0.03 0.03 94 1008.7
20260506135017 72 0.0 3.0 0.02 0.03 0.03 94 1008.8
20260506134038 72 0.0 1.0 0.01 0.02 0.02 94 1008.6
20260506133017 72 113 1.0 5.0 0.01 0.02 0.02 94 1008.0
20260506132037 72 135 1.0 4.0 0.01 0.01 0.01 94 1007.4
20260506131017 72 135 1.0 5.0 0.01 0.01 0.01 94 1007.3
20260506130017 72 0.0 4.0 0.01 0.01 0.01 94 1007.3
20260506125037 72 135 1.0 4.0 0.01 0.01 0.01 94 1007.3
20260506124017 72 0.0 2.0 0.01 0.01 0.01 94 1007.4
20260506123017 72 135 1.0 3.0 0.01 0.01 0.01 94 1007.2
20260506122016 72 135 1.0 3.0 0.00 0.00 0.00 94 1007.0
20260506121017 72 158 1.0 4.0 0.00 0.00 0.00 94 1007.2
20260506120017 72 158 1.0 5.0 0.00 0.00 0.00 94 1007.1
20260506115017 72 135 1.0 4.0 0.00 0.00 0.00 94 1007.1
20260506114016 72 113 1.0 4.0 0.00 0.00 0.00 94 1007.2
20260506113037 72 0.0 3.0 0.00 0.00 0.00 94 1007.2
20260506112016 72 158 1.0 6.0 0.00 0.00 0.00 94 1007.4
20260506111016 72 158 1.0 7.0 0.00 0.00 0.00 94 1007.4
20260506110036 72 158 1.0 6.0 0.00 0.00 0.00 94 1007.5
20260506105017 72 203 1.0 3.0 0.00 0.00 0.00 94 1007.6
20260506104016 72 135 1.0 5.0 0.00 0.00 0.00 94 1007.5
20260506103017 72 135 1.0 3.0 0.00 0.00 0.00 94 1007.6
20260506102016 72 135 2.0 7.0 0.00 0.00 0.00 94 1007.4
20260506101016 72 135 2.0 7.0 0.00 0.00 0.00 93 1007.2
20260506100016 72 180 2.0 7.0 0.00 0.00 0.00 93 1007.2
20260506095037 72 135 2.0 5.0 0.00 0.00 0.00 93 1007.5
20260506094017 73 135 2.0 7.0 0.00 0.00 0.00 93 1007.5
20260506093016 73 135 2.0 5.0 0.00 0.00 0.00 93 1007.4
20260506092016 73 135 1.0 7.0 0.00 0.00 0.00 93 1007.4
20260506091016 73 158 1.0 5.0 0.00 0.00 0.00 93 1007.5
20260506090016 73 135 2.0 7.0 0.00 0.00 0.00 93 1007.2
20260506085016 73 135 2.0 6.0 0.00 0.00 0.00 93 1007.1
20260506084036 73 135 2.0 7.0 0.00 0.00 0.00 92 1007.0
20260506083016 73 135 3.0 8.0 0.00 0.00 0.00 92 1006.9
20260506082016 73 135 2.0 8.0 0.00 0.00 0.00 92 1006.8
20260506081016 73 135 3.0 9.0 0.00 0.00 0.00 92 1006.8
20260506073016 74 135 4.0 11.0 0.00 0.00 0.00 92 1007.1
20260506072016 74 135 2.0 6.0 0.00 0.00 0.00 92 1006.9
20260506071018 74 135 2.0 8.0 0.00 0.00 0.00 92 1007.0
20260506062019 74 135 2.0 9.0 0.00 0.00 0.00 91 1007.3
20260506061018 74 135 2.0 9.0 0.00 0.00 0.00 91 1007.3
20260506051017 73 135 1.0 4.0 0.00 0.00 0.00 89 1006.9
20260506045017 73 0.0 2.0 0.00 0.00 0.00 89 1006.7
20260506044037 73 0.0 2.0 0.00 0.00 0.00 89 1006.6
20260506043016 73 0.0 2.0 0.00 0.00 0.00 89 1006.7
20260506042017 73 0.0 1.0 0.00 0.00 0.00 88 1006.4
20260506041018 73 0.0 1.0 0.00 0.00 0.00 88 1006.5
20260506040017 73 0.0 2.0 0.00 0.00 0.00 87 1006.2
20260506035017 73 0.0 0.0 0.00 0.00 0.00 86 1006.2
20260506034016 73 0.0 0.0 0.00 0.00 0.00 85 1006.2
20260506033016 73 0.0 0.0 0.00 0.00 0.00 84 1006.1
20260506032017 74 0.0 0.0 0.00 0.00 0.00 84 1006.1
20260506031017 74 0.0 0.0 0.00 0.00 0.00 83 1005.7
20260506030038 75 0.0 0.0 0.00 0.00 0.00 82 1005.6
20260506025016 75 0.0 0.0 0.00 0.00 0.00 80 1005.6
20260506024016 76 0.0 0.0 0.00 0.00 0.00 79 1005.5
20260506023017 76 0.0 0.0 0.00 0.00 0.00 79 1005.4
20260506022016 77 0.0 0.0 0.00 0.00 0.00 78 1005.3
20260506021016 77 0.0 0.0 0.00 0.00 0.00 76 1005.2
20260506020016 78 0.0 0.0 0.00 0.00 0.00 76 1005.1
20260506015018 78 0.0 2.0 0.00 0.00 0.00 75 1004.9
20260506014036 79 0.0 3.0 0.00 0.00 0.00 75 1004.7
20260506013016 80 0.0 5.0 0.00 0.00 0.00 74 1004.6
20260506012016 80 158 1.0 4.0 0.00 0.00 0.00 73 1004.4
20260506011016 81 135 1.0 6.0 0.00 0.00 0.00 71 1004.4
20260506010016 82 113 1.0 5.0 0.00 0.00 0.00 69 1004.2
20260506005016 82 158 1.0 4.0 0.00 0.00 0.00 67 1004.5
20260506004016 83 135 1.0 7.0 0.00 0.00 0.00 66 1004.5
20260506003016 83 180 1.0 5.0 0.00 0.00 0.00 66 1004.4
20260506002016 84 135 1.0 4.0 0.00 0.00 0.00 65 1004.7
20260506001036 84 113 1.0 5.0 0.00 0.00 0.00 65 1004.8
20260506000057 84 135 1.0 4.0 0.00 0.00 0.00 64 1004.8
20260505235016 84 180 1.0 5.0 0.00 0.00 0.00 64 1004.7
20260505234036 85 135 1.0 5.0 0.00 0.00 0.00 63 1004.6
20260505233016 85 158 2.0 7.0 0.00 0.00 0.00 62 1004.6
20260505232016 86 135 2.0 5.0 0.00 0.00 0.00 63 1004.7
20260505231016 86 158 1.0 6.0 0.00 0.00 0.00 62 1004.7
20260505230016 86 135 2.0 7.0 0.00 0.00 0.00 62 1004.6
20260505225015 87 225 2.0 9.0 0.00 0.00 0.00 59 1004.6
20260505224016 87 135 2.0 7.0 0.00 0.00 0.00 59 1004.6
20260505223015 87 135 1.0 7.0 0.00 0.00 0.00 58 1004.7
20260505222036 87 158 1.0 6.0 0.00 0.00 0.00 58 1004.7
20260505221016 87 135 1.0 4.0 0.00 0.00 0.00 59 1004.7
20260505220018 87 135 1.0 7.0 0.00 0.00 0.00 58 1004.8
20260505215018 87 135 2.0 6.0 0.00 0.00 0.00 59 1004.9
20260505214018 87 203 2.0 6.0 0.00 0.00 0.00 58 1005.0
20260505213038 88 203 2.0 6.0 0.00 0.00 0.00 57 1005.2
20260505212018 88 135 2.0 7.0 0.00 0.00 0.00 56 1005.2
20260505211039 89 135 2.0 7.0 0.00 0.00 0.00 56 1005.3
20260505210017 89 203 2.0 10.0 0.00 0.00 0.00 56 1005.7
20260505205017 89 135 2.0 9.0 0.00 0.00 0.00 59 1005.8
20260505204017 88 135 2.0 9.0 0.00 0.00 0.00 57 1005.8
20260505203017 88 135 2.0 9.0 0.00 0.00 0.00 58 1005.7
20260505202017 88 203 3.0 11.0 0.00 0.00 0.00 59 1005.9
20260505201017 88 225 1.0 7.0 0.00 0.00 0.00 57 1006.0
20260505200017 88 135 1.0 9.0 0.00 0.00 0.00 59 1006.1
20260505195017 87 135 2.0 6.0 0.00 0.00 0.00 59 1006.3
20260505194038 87 135 2.0 6.0 0.00 0.00 0.00 59 1006.3
20260505193017 87 158 3.0 12.0 0.00 0.00 0.00 60 1006.3
20260505192017 86 135 3.0 10.0 0.00 0.00 0.00 62 1006.2
20260505191039 85 135 2.0 9.0 0.00 0.00 0.00 61 1006.4
20260505190017 86 135 3.0 7.0 0.00 0.00 0.00 61 1006.5